{"data":{"norad_id":68374,"epoch":"2026-09-19T07:58:54.253632Z","epoch_age_seconds":173085,"freshness":"STALE","line1":"1 68374U 26061Q   26262.33257238  .00002016  00000+0  95252-4 0  9999","line2":"2 68374  82.2918 275.2244 0002264  95.9101 264.2391 15.18878892 27918","mean_motion":15.18878892,"eccentricity":0.0002264,"inclination_deg":82.2918,"raan_deg":275.2244,"arg_perigee_deg":95.9101,"mean_anomaly_deg":264.2391,"bstar":9.5252e-5,"rev_number":2791,"period_min":94.806768833548,"perigee_km":507.66834469476,"apogee_km":510.78694340559,"semimajor_km":6887.3646440502,"source":"CELESTRAK","updated_at":"2026-09-20T09:00:24.165788Z"}}